EW3836 Weather Reports


Display with metric or nautical units.
time (UTC)temp
F
wind
direction
speed
MPH
gust
MPH
rain 1hr
in
rain 24hr
in
rain mn
in
humidity
%
barometer
mb
20260903204545 56 237 0.0 0.0 0.00 0.22 0.10 63 1008.6
20260903203042 55 307 0.0 0.0 0.00 0.22 0.10 65 1008.5
20260903201541 55 319 0.0 0.0 0.00 0.22 0.10 65 1008.6
20260903200036 55 313 0.0 0.0 0.00 0.22 0.10 64 1008.6
20260903194542 56 304 0.0 0.0 0.00 0.22 0.10 64 1008.6
20260903193032 55 150 0.0 0.0 0.00 0.22 0.10 66 1008.6
20260903191529 55 93 0.0 0.0 0.00 0.22 0.10 68 1008.6
20260903190026 55 96 0.0 0.0 0.00 0.22 0.10 68 1008.7
20260903184521 54 102 0.0 0.0 0.00 0.22 0.10 69 1009.0
20260903183018 53 256 0.0 0.0 0.00 0.22 0.10 67 1009.0
20260903181515 53 250 0.0 0.0 0.00 0.22 0.10 70 1009.1
20260903180015 53 269 0.0 0.0 0.00 0.22 0.10 70 1009.2
20260903174516 52 236 0.0 0.0 0.00 0.22 0.10 74 1009.2
20260903173013 52 248 0.0 0.0 0.00 0.22 0.10 72 1009.1
20260903171512 52 228 0.0 0.0 0.00 0.22 0.10 74 1009.1
20260903170012 52 175 0.0 0.0 0.00 0.22 0.10 77 1009.1
20260903164505 51 158 0.0 0.0 0.00 0.22 0.10 78 1009.1
20260903163002 50 172 0.0 0.0 0.00 0.22 0.10 79 1009.1
20260903161501 50 173 0.0 0.0 0.00 0.22 0.10 81 1009.0
20260903160059 49 167 0.0 0.0 0.00 0.22 0.10 84 1008.9
20260903154559 49 212 0.0 0.0 0.00 0.22 0.10 85 1009.2
20260903153055 48 192 0.0 0.0 0.00 0.22 0.10 87 1009.1
20260903151558 48 151 0.0 0.0 0.00 0.22 0.10 87 1009.1
20260903144553 48 175 0.0 0.0 0.00 0.22 0.10 88 1009.4
20260903143053 47 189 0.0 0.0 0.00 0.22 0.10 86 1009.1
20260903141549 47 225 0.0 0.0 0.00 0.22 0.10 88 1009.1
20260903140047 47 198 0.0 0.0 0.00 0.22 0.10 88 1009.0
20260903134548 47 195 0.0 0.0 0.00 0.22 0.10 88 1008.8
20260903133045 47 213 0.0 0.0 0.00 0.22 0.10 88 1008.8
20260903131556 47 225 0.0 0.0 0.00 0.22 0.10 89 1008.6
20260903130044 47 194 0.0 0.0 0.00 0.22 0.10 91 1008.3
20260903124541 47 207 0.0 0.0 0.00 0.22 0.10 92 1008.3
20260903123042 47 194 0.0 0.0 0.00 0.22 0.10 92 1008.2
20260903121552 47 295 0.0 0.0 0.01 0.22 0.10 93 1008.1
20260903120035 47 173 0.0 0.0 0.01 0.22 0.10 93 1007.9
20260903114533 47 146 0.0 0.0 0.02 0.22 0.10 93 1007.8
20260903113031 47 153 0.0 0.0 0.02 0.22 0.10 93 1007.7
20260903111531 47 199 0.0 0.0 0.02 0.21 0.09 93 1007.6
20260903110030 48 173 0.0 0.0 0.03 0.21 0.09 93 1007.5
20260903104546 47 181 0.0 0.0 0.03 0.20 0.08 93 1007.5
20260903103028 47 232 0.0 0.0 0.04 0.20 0.08 93 1007.8
20260903101526 48 193 0.0 0.0 0.03 0.19 0.07 93 1007.7
20260903100036 48 221 0.0 0.0 0.02 0.18 0.06 92 1007.5
20260903094525 48 247 0.0 0.0 0.01 0.17 0.05 91 1007.7
20260903093027 48 171 0.0 0.0 0.00 0.16 0.04 91 1007.3
20260903091519 48 182 0.0 0.0 0.00 0.16 0.04 91 1007.1
20260903090015 49 181 0.0 0.0 0.00 0.16 0.04 90 1006.8
20260903084518 48 163 0.0 0.0 0.01 0.16 0.04 90 1006.9
20260903083012 48 156 0.0 0.0 0.02 0.16 0.04 91 1006.9
20260903081513 48 165 0.0 0.0 0.02 0.16 0.04 91 1006.9
20260903080009 48 164 0.0 0.0 0.04 0.16 0.04 91 1006.8
20260903074508 48 162 0.0 0.0 0.06 0.15 0.03 91 1006.7
20260903073014 48 190 0.0 0.0 0.08 0.14 0.02 91 1006.5
20260903071503 48 207 0.0 0.0 0.11 0.14 0.02 92 1006.5
20260903070100 47 180 0.0 0.0 0.10 0.12 0.00 93 1006.6
20260903070001 47 180 0.0 0.0 0.10 0.12 0.00 93 1006.6
20260903064556 48 261 0.0 0.0 0.08 0.09 0.09 93 1006.6
20260903063053 49 269 0.0 0.0 0.06 0.06 0.06 91 1006.7
20260903061556 50 157 0.0 0.0 0.03 0.03 0.03 90 1006.2
20260903054549 50 192 0.0 0.0 0.01 0.01 0.01 90 1006.4
20260903053048 50 175 0.0 0.0 0.00 0.00 0.00 90 1006.4
20260903051547 51 205 0.0 0.0 0.00 0.00 0.00 89 1006.4
20260903050046 51 177 0.0 0.0 0.00 0.00 0.00 88 1006.5
20260903044542 51 176 0.0 0.0 0.00 0.00 0.00 86 1006.6
20260903043041 51 184 0.0 0.0 0.00 0.00 0.00 85 1006.5
20260903041541 51 215 0.0 0.0 0.00 0.00 0.00 85 1006.5
20260903040038 51 201 0.0 0.0 0.00 0.00 0.00 85 1006.5
20260903034538 52 175 0.0 0.0 0.00 0.00 0.00 85 1006.4
20260903033035 52 209 0.0 0.0 0.00 0.00 0.00 83 1006.3
20260903031540 52 168 0.0 0.0 0.00 0.00 0.00 84 1006.2
20260903030039 53 178 0.0 0.0 0.00 0.00 0.00 81 1006.1
20260903024531 53 216 0.0 0.0 0.00 0.00 0.00 79 1006.1
20260903023032 53 165 0.0 0.0 0.00 0.00 0.00 78 1005.9
20260903021540 54 206 0.0 0.0 0.00 0.00 0.00 77 1005.9
20260903020036 55 207 0.0 0.0 0.00 0.00 0.00 73 1005.9
20260903014528 56 216 0.0 0.0 0.00 0.00 0.00 71 1005.8
20260903013028 56 244 0.0 0.0 0.00 0.00 0.00 70 1005.6
20260903011535 57 243 0.0 0.0 0.00 0.00 0.00 66 1005.5
20260903010031 58 242 0.0 0.0 0.00 0.00 0.00 63 1005.5
20260903004530 60 259 0.0 0.0 0.00 0.00 0.00 57 1005.4
20260903003025 60 290 0.0 0.0 0.00 0.00 0.00 55 1005.4
20260903001524 61 282 0.0 0.0 0.00 0.00 0.00 54 1005.3
20260903000037 61 301 0.0 0.0 0.00 0.00 0.00 55 1005.2
20260902234522 61 293 0.0 0.0 0.00 0.00 0.00 56 1005.1
20260902233036 62 304 0.0 0.0 0.00 0.00 0.00 56 1004.8
20260902231524 62 274 0.0 0.0 0.00 0.00 0.00 51 1004.6
20260902230020 62 283 0.0 0.0 0.00 0.00 0.00 57 1004.6
20260902224520 63 284 0.0 0.0 0.00 0.00 0.00 51 1004.0
20260902223023 65 251 0.0 0.0 0.00 0.00 0.00 51 1004.0
20260902221518 67 242 0.0 0.0 0.00 0.00 0.00 44 1003.8
20260902220025 68 350 0.0 0.0 0.00 0.00 0.00 44 1003.5
20260902214533 67 333 0.0 0.0 0.00 0.00 0.00 45 1003.7
20260902213012 67 5 0.0 0.0 0.00 0.00 0.00 45 1003.8
20260902211513 67 39 0.0 0.0 0.00 0.00 0.00 45 1004.0
20260902210013 67 239 0.0 0.0 0.00 0.00 0.00 45 1004.1